Submittal Forms
Current Contests
Recent Contests

Club Activity Tracker - Georgia Contest Group (from club selection on form)

Recent postings for the selected club or group are listed below. Other than the call used, all calls listed are only those associated with the club or group. Click on a call to see the details of the posting.
Status Key: new=new posting, update=update prior posting, move=change club/group, delete=delete prior posting.

Sort by   for past

TimestampCallContestClassPowerScoreStatus
2020-05-28 04:19:11N5TOOCWopsTSingle OpLP3,969new5615
2020-05-28 04:01:27W4XOCWopsTSingle OpLP3,904new5615
2020-05-27 20:09:18W4XOCWopsTSingle OpHP7,654new5614
2020-05-27 20:04:25N5TOOCWopsTSingle OpLP5,106new5614
2020-05-27 14:03:40N5TOOCWopsTSingle OpLP14,161new5613
2020-05-27 14:02:33KG5HVOCWopsTSingle OpLP13,552new5613
2020-05-27 14:02:20W4XOCWopsTSingle OpLP7,396new5613
2020-05-21 22:10:17N5TOOCWopsTSingle OpLP3,078new5593
2020-05-21 04:02:49N5TOOCWopsTSingle OpLP5,244new5594
2020-05-21 04:01:48KG5HVOCWopsTSingle OpLP11,628new5594
 
2020-05-21 03:27:11W4XOCWopsTSingle OpLP870new5594
2020-05-20 20:11:26W4XOCWopsTSingle OpLP5,624new5593
2020-05-20 14:02:49N5TOOCWopsTSingle OpLP10,609new5592
2020-05-20 14:02:42W4XOCWopsTSingle OpLP12,100new5592
2020-05-20 14:01:39KG5HVOCWopsTSingle OpLP15,232new5592
2020-05-19 04:58:06KG5HVOKing of Spain CWSOABLP5,661new5583
2020-05-17 02:47:29KG5HVOHamventionSingle OpLP95new5569
2020-05-15 03:02:19KG5HVONCCC SprintSingle OpLP1,530new5580
2020-05-14 15:14:27N5TOOCWopsTSingle OpLP5,776new5576
2020-05-14 04:03:16KG5HVOCWopsTSingle OpLP625new5576
 
2020-05-14 03:36:44W4XOCWopsTSingle OpLP1,188new5576
2020-05-13 20:21:20N5TOOCWopsTSingle OpLP4,624new5575
2020-05-13 14:06:16W4XOCWopsTSingle OpLP12,100new5574
2020-05-13 14:03:01KG5HVOCWopsTSingle OpLP12,882new5574
2020-05-13 14:02:10N5TOOCWopsTSingle OpLP5,625new5574
2020-05-10 22:42:51N2MMVolta RTTYSOSB/20HP55,222,761new5563
2020-05-10 15:04:52AA4CFArQPSOCWHP50new5565
2020-05-10 13:06:32K4VBMArQPSOMixedLP725new5565
2020-05-10 12:15:36K1ZZI(@W7DXX)CQ-MSOABCWHP10,080new5564
2020-05-07 04:02:29KG5HVOCWopsTSingle OpLP18,769new5559
 
2020-05-07 04:02:26N5TOOCWopsTSingle OpLP6,561new5559
2020-05-06 20:03:53N5TOOCWopsTSingle OpLP7,310new5558
2020-05-06 14:03:44N5TOOCWopsTSingle OpLP5,184new5557
2020-05-06 14:02:39KG5HVOCWopsTSingle OpLP11,881new5557
2020-05-05 04:09:43N5TOO7QPCnty Exped SOLP6,816new5544
2020-05-04 16:53:35AA4CFInQPSingle OpHP24new5545
2020-05-04 16:50:44AA4CFNewEngQPSingle OpHP11,622new5547
2020-05-04 16:47:06AA4CFDeQPSingle OpHP400new5546
2020-05-04 16:45:06AA4CF7QPSOCWHP12,540new5544
2020-05-04 05:19:26K4VBMNewEngQPSingle OpLP9,435new5547
 
2020-05-04 05:17:27K4VBMInQPSingle OpLP1,404new5545
2020-05-04 05:16:19K4VBMDeQPSingle OpLP540new5546
2020-05-04 05:15:09K4VBM7QPSO(A)MixedLP17,672new5544
2020-05-03 07:03:10W5JR7QPSO(A)CWHP5,544new5544
2020-05-02 06:25:08KG5HVOFlQPSOABMixedLP7,524new5529
2020-04-30 04:25:29N5TOOCWopsTSingle OpLP4,485new5537
2020-04-29 21:59:51AA4CFCWopsTSingle OpHP7,308new5536
2020-04-29 19:37:39N5TOOCWopsTSingle OpLP441new5536
2020-04-29 14:02:45N5TOOCWopsTSingle OpLP7,225new5535
2020-04-29 14:01:56KG5HVOCWopsTSingle OpLP14,278new